Tracking 35274 objects as of 11-Sep-2026
HD Live streaming from Space Station
objects crossing your sky now

FALCON 9 DEB


FALCON 9 DEB is no longer on orbit


NORAD ID: 52589
Int'l Code: 2022-051BF
Launch date: May 13, 2022
Source: United States (US)
Launch site: AIR FORCE WESTERN TEST RANGE (AFWTR)
Decay date: 2022-07-04

Note: This is SATELLITE DEBRIS
Your satellite tracking list
Your tracking list is empty




NASA's NSSDC Master Catalog

Two Line Element Set (TLE):
1 52589U 22051BF  22183.01266732  .12457752  12650-4  11001-3 0  9999
2 52589  53.2243  40.5067 0007749 265.8231  94.1937 16.51244927  8334
Source of the keplerian elements: AFSPC